Redmond, OR

5:21 AM PST on January 17, 2018 (GMT -0800)
Roberts Field Airport

Weather History for KRDM - November, 2014

Change the Weather History Date:

Thursday, November 6, 2014

  Actual Average Record
Temperature  
Mean Temperature 53 °F 40 °F  
Max Temperature 67 °F 53 °F 75 °F (2012)
Min Temperature 38 °F 28 °F 8 °F (1971)
Degree Days  
Heating Degree Days 12 24  
Month to date heating degree days 105 141  
Since 1 July heating degree days 739 1086  
Cooling Degree Days 0 0  
Month to date cooling degree days 0 0  
Year to date cooling degree days 311 222  
Growing Degree Days 4 (Base 50)    
Moisture  
Dew Point 40 °F    
Average Humidity 60    
Maximum Humidity 82    
Minimum Humidity 37    
Precipitation  
Precipitation 0.00 in 0.03 in 0.15 in (1997)
Month to date precipitation 0.07 0.18  
Year to date precipitation 6.15 6.96  
Sea Level Pressure  
Sea Level Pressure 30.09 in    
Wind  
Wind Speed 10 mph (SW)    
Max Wind Speed 26 mph    
Max Gust Speed 42 mph    
Visibility 10 miles    
Events      
T = Trace of Precipitation, MM = Missing Value Source: NWS Daily Summary

Daily Weather History Graph

Daily Weather History Graph

Search for Another Location

Airport or City:

Trip Planner

Search our weather history database for the weather conditions in past years. The results will help you decide how hot, cold, wet, or windy it might be!

Date:

Astronomy

Nov. 06, 2014 Rise Set
Actual Time 6:48 AM PST 4:47 PM PST
Civil Twilight 6:17 AM PST 5:18 PM PST
Nautical Twilight 5:43 AM PST 5:52 PM PST
Astronomical Twilight 5:09 AM PST 6:26 PM PST
Moon 4:59 PM PST (11/6) 6:24 AM PST (11/6)
Length of Visible Light 11h 00m
Length of Day
9h 59m
Full, 100% of the Moon is Illuminated
Nov 6
Full
Nov 6
Full
Nov 14
Last Quarter
Nov 22
New
Nov 29
First Quarter

Hourly Weather History & Observations

Time (PST) Temp. Windchill Dew Point Humidity Pressure Visibility Wind Dir Wind Speed Gust Speed Precip Events Conditions
12:56 AM 55.0 °F - 44.1 °F 67% 30.04 in 10.0 mi SSE 5.8 mph - N/A   Clear
1:56 AM 52.0 °F - 43.0 °F 71% 30.04 in 10.0 mi SSW 4.6 mph - N/A   Clear
2:56 AM 53.1 °F - 43.0 °F 69% 30.03 in 10.0 mi South 10.4 mph - N/A   Clear
3:56 AM 52.0 °F - 42.1 °F 69% 30.01 in 10.0 mi South 8.1 mph - N/A   Clear
4:56 AM 53.1 °F - 41.0 °F 64% 29.99 in 10.0 mi South 6.9 mph - N/A   Clear
5:56 AM 53.1 °F - 41.0 °F 64% 30.01 in 10.0 mi SSE 10.4 mph - N/A   Clear
6:56 AM 53.1 °F - 39.9 °F 61% 30.00 in 10.0 mi SSE 8.1 mph - N/A   Partly Cloudy
7:56 AM 55.9 °F - 39.9 °F 55% 30.01 in 10.0 mi East 5.8 mph - N/A   Clear
8:56 AM 62.1 °F - 41.0 °F 46% 30.00 in 10.0 mi South 13.8 mph - N/A   Clear
9:56 AM 64.9 °F - 41.0 °F 42% 29.98 in 8.0 mi SSW 20.7 mph 33.4 mph N/A   Clear
10:56 AM 66.0 °F - 39.9 °F 38% 29.99 in 10.0 mi SSW 24.2 mph 34.5 mph N/A   Clear
11:56 AM 64.9 °F - 39.0 °F 39% 29.99 in 10.0 mi SSW 18.4 mph 27.6 mph N/A   Scattered Clouds
12:56 PM 63.0 °F - 43.0 °F 48% 30.01 in 10.0 mi SW 18.4 mph 27.6 mph N/A   Mostly Cloudy
1:56 PM 63.0 °F - 43.0 °F 48% 30.04 in 10.0 mi SSW 12.7 mph 24.2 mph N/A   Overcast
2:56 PM 61.0 °F - 44.1 °F 54% 30.07 in 10.0 mi North 10.4 mph - N/A   Overcast
3:56 PM 55.0 °F - 41.0 °F 59% 30.12 in 10.0 mi WNW 15.0 mph - N/A   Mostly Cloudy
4:56 PM 53.1 °F - 39.0 °F 59% 30.14 in 10.0 mi WNW 10.4 mph - N/A   Scattered Clouds
5:56 PM 51.1 °F - 37.9 °F 61% 30.17 in 10.0 mi WNW 10.4 mph - N/A   Clear
6:56 PM 50.0 °F - 39.0 °F 66% 30.18 in 10.0 mi West 5.8 mph - N/A   Partly Cloudy
7:56 PM 50.0 °F - 39.0 °F 66% 30.21 in 10.0 mi NW 9.2 mph - N/A   Mostly Cloudy
8:56 PM 48.0 °F - 39.0 °F 71% 30.23 in 10.0 mi WNW 8.1 mph - N/A   Partly Cloudy
9:56 PM 46.0 °F 44.8 °F 37.0 °F 71% 30.25 in 10.0 mi NW 3.5 mph - N/A   Mostly Cloudy
10:56 PM 43.0 °F 41.3 °F 37.0 °F 80% 30.27 in 10.0 mi West 3.5 mph - N/A   Clear
11:56 PM 39.0 °F - 35.1 °F 86% 30.28 in 10.0 mi Calm Calm - N/A   Mostly Cloudy